Terminal Aerodrome Forecast
Issued by NWS Columbia, SC

Home | Current Version | Previous Version | Text Only | Print | Product List | Glossary On
Versions: 1 2 3 4 5 6 7 8 9 10 11 12 13 14 15 16 17 18 19 20 21 22 23 24 25 26 27 28 29 30 31 32 33 34 35 36 37 38 39 40
000
FTUS42 KCAE 310500
TAFAGS
TAF
KAGS 310538Z 3106/0106 VRB03KT P6SM BKN080
      TEMPO 3110/3113 4SM BR
     FM311400 08006KT P6SM BKN060
     FM311700 09007KT P6SM VCSH SCT030 BKN050
     FM010500 05005KT P6SM SCT025 BKN035=

USA.gov is the U.S. government's official web portal to all federal, state and local government web resources and services.